Regional Weather Roundup
Issued by NWS Newport/Morehead, NC

Current Version | Previous Version | Text Only | Print | Product List | Glossary On
Versions: 1 2 3 4 5 6 7 8 9 10 11 12 13 14 15 16 17 18 19 20 21 22 23 24 25 26 27 28 29 30 31 32 33 34 35 36 37 38 39 40 41 42 43 44 45 46 47 48 49 50
000 ASUS42 KMHX 280813 RWRMHX WEATHER ROUNDUP FOR EASTERN NORTH CAROLINA NATIONAL WEATHER SERVICE NEWPORT/MOREHEAD CITY NC 400 AM EDT WED SEP 28 2016 NOTE: "FAIR" INDICATES FEW OR NO CLOUDS BELOW 12,000 FEET WITH NO SIGNIFICANT WEATHER AND/OR OBSTRUCTIONS TO VISIBILITY NCZ015>017-031-032-045>047-102-103-280900- NORTH COAST CITY SKY/WX TMP DP RH WIND PRES REMARKS EDENTON CLEAR 67 67 100 CALM 29.94R ELIZABETH CITY FOG 64 64 100 W3 29.93R VSB 3/4 KITTY HAWK SUNNY 71 71 100 CALM 29.90S MANTEO NOT AVBL $$ NCZ045>047-081-094-103-104-280900- CENTRAL COAST CITY SKY/WX TMP DP RH WIND PRES REMARKS FRISCO CLEAR 74 72 93 CALM 29.90F $$ NCZ095-097-098-100-101-280900- SOUTHERN COAST CITY SKY/WX TMP DP RH WIND PRES REMARKS BEAUFORT CLOUDY 70 69 97 N5 29.92S CEDAR ISLAND NOT AVBL JACKSONVILLE CLEAR 68 66 93 CALM 29.92S PINEY ISLAND NOT AVBL WILMINGTON CLEAR 68 67 96 CALM 29.92S $$ NCZ011>013-027>030-043-044-078>080-089-090>093-098-280900- COASTAL PLAIN CITY SKY/WX TMP DP RH WIND PRES REMARKS AHOSKIE CLOUDY 67 66 99 CALM 29.93S CLINTON PTCLDY 70 70 100 CALM 29.92S ELIZABETHTOWN CLEAR 69 69 100 S5 29.91F GOLDSBORO CLOUDY 70 70 100 E5 29.90F GREENVILLE CLOUDY 70 70 100 CALM 29.94F HAVELOCK CLOUDY 69 67 93 CALM 29.93S KENANSVILLE MOCLDY 68 68 100 CALM 29.92F FOG KINSTON MOCLDY 68 67 99 CALM 29.94S FOG NEW BERN CLOUDY 70 68 93 CALM 29.94S RICHLANDS PTCLDY 67 67 100 CALM 29.93F ROCKY MOUNT CLOUDY 70 70 100 S3 29.92S WASHINGTON CLOUDY 66 66 99 CALM 29.93S WHITEVILLE PTCLDY 69 68 96 CALM 29.92S $$ AMZ130-135-150-152-154-156-158-170-250-252-270-ANZ085-086-088-633-658-670-280900- MARINE OBSERVATIONS STATION/POSITION TIME TEMP WIND PRES WAVE SWELL AIR SEA DIR/SP/G HT/PER HT/PER (UTC) (F) (DEG/KT/KT) (MB) (FT/S) (FT/S) CHESAPEAKE LIGHT NOT AVBL 64 E VA BEACH 0750 74 74 340/ 6/ 8 1012.6 4/ 7 3/ 7 DUCK 0748 74 76 50/ 4/ 5 1012.2 2 E DUCK 0741 76 N/A 4/ 7 2/13 OREGON INLET 0748 73 76 360/ 1/ 3 1012.6 13E OREGON INLT 0730 76 N/A 5/ 6 5/ 6 HATTERAS CG 0748 75 77 350/ 7/ 9 1012.3 DIAMOND BUOY 0750 77 83 350/ 10/ 12 1012.1 5/ 7 5/ 7 CAPE LOOKOUT 0800 74 350/ 4/ 5 1012.9 BEAUFORT LAB 0748 74 76 360/ 4/ 5 1012.6 30 SE NEW RVR IN 0708 79 83 350/ 4/ 8 1013.2 30 SE NEW RVR IN 0725 83 N/A 4/ 6 2/12 27 SE WRIGHTSVLE 0708 79 81 330/ 2/ 4 1013.2 5 SE WRIGHTSVLE 0708 79 80 230/ 6/ 8 1014.1 225 S CAPE HAT 0750 82 83 230/ 10/ 12 1012.9 4/11 3/11 41 SE CHARLESTON 0750 79 82 CALM / 2 1012.4 3/11 3/11 $$

USA.gov is the U.S. government's official web portal to all federal, state and local government web resources and services.